Regional Weather Roundup
Issued by NWS Cleveland, OH

Home | Current Version | Previous Version | Graphics & Text | Print | Product List | Glossary On
Versions: 1 2 3 4 5 6 7 8 9 10 11 12 13 14 15 16 17 18 19 20 21 22 23 24 25 26 27 28 29 30 31 32 33 34 35 36 37 38 39 40 41 42 43 44 45 46 47 48 49 50
435
ASUS41 KCLE 171512
RWRCLE
OHIO REGIONAL WEATHER ROUNDUP
NATIONAL WEATHER SERVICE WILMINGTON, OH
1100 AM EDT TUE OCT 17 2017

NOTE: "FAIR" INDICATES FEW OR NO CLOUDS BELOW 12,000 FEET WITH NO
SIGNIFICANT WEATHER AND/OR OBSTRUCTIONS TO VISIBILITY.

OHZ001>008-015>018-024>027-034-035-043-044-171600-
   NORTHWEST OHIO

CITY           SKY/WX    TMP DP  RH WIND       PRES   REMARKS
DEFIANCE       FAIR      57  39  51 MISG      30.28S
FINDLAY        FAIR      59  39  47 SW16      30.29F
TOLEDO EXPRESS FAIR      58  42  55 SW15G23   30.26F
TOLEDO EXEC    FAIR      57  41  55 SW15G23   30.27F
LIMA           FAIR      57  39  51 SW16      30.31F
$$

OHZ009>014-019>023-028>033-038-089-171600-
   NORTHEAST OHIO

CITY           SKY/WX    TMP DP  RH WIND       PRES   REMARKS
CLE-HOPKINS    FAIR      58  39  49 SW13G23   30.31F
CLE-LAKEFRONT  FAIR      58  37  45 SW14      30.28F
CUY CO. ARPT   SUNNY     57  39  51 SW14      30.30S
LORAIN-ELYRIA  FAIR     N/A N/A N/A MISG      30.30F
ASHTABULA      FAIR      53  39  59 SW15      30.30F
AKRON-CANTON   FAIR      54  40  59 SW12      30.33F
WOOSTER        FAIR      54  40  59 SW9       30.33F
MANSFIELD      FAIR      57  39  51 SW10      30.32F
YOUNGSTOWN     FAIR      54  38  54 SW7       30.32S
$$

OHZ042-051>053-060>062-070>072-077>081-171600-
  SOUTHWEST OHIO

CITY           SKY/WX    TMP DP  RH WIND       PRES   REMARKS
CINC-COVINGTON FAIR      56  43  61 S7        30.38S
CINC-LUNKEN    FAIR      54  47  77 CALM      30.39F
HAMILTON       FAIR      54  47  77 NW3       30.39F
DAYTON         FAIR      56  41  57 SW13      30.37S
WRIGHT-PAT AFB FAIR      56  41  57 SW13      30.36F
DAYTON GENERAL FAIR      55  40  56 SW8       30.37R
WILMINGTON     FAIR      56  43  61 SW9       30.37S
$$

OHZ036-037-039>041-045>050-054>059-063>069-073>076-082>088-171600-
  CENTRAL AND SOUTHEAST OHIO

CITY           SKY/WX    TMP DP  RH WIND       PRES   REMARKS
COLUMBUS       FAIR      54  42  64 SW7       30.36F
OSU AIRPORT    FAIR      57  43  59 SW8       30.36S
BOLTON FIELD   SUNNY     55  43  62 SW8       30.37S
RICKENBACK AFB FAIR      51  44  75 SW5       30.37F
NEWARK         FAIR      56  41  57 VRB5      30.36S
MARION         FAIR      57  40  52 SW14      30.33F
LANCASTER      FAIR      56  43  61 SW6       30.37S
ZANESVILLE     FAIR      52  43  71 S6        30.37S
NEW PHILLY     FAIR      55  40  56 SW8       30.36F
$$




USA.gov is the U.S. government's official web portal to all federal, state and local government web resources and services.